MyTimes logo

TIMES

Webb Imagery

27/01/2005

YMCA at Boroondara Aquathon Series - Race #6

(1.5km run / 250m swim) x3

(Click on competitor name to view personalised results)

Name
Race #
Category
Team Name
Time
(h:mm:ss)
Avg Speed
km/hr
OAll
Place
Cat
Place
DAVIS Colin#732Adult Male0:30:01 10.5 11
HARNS Julian#740Junior Team0:31:09 10.1 21
NUNN James#739Adult Male0:31:51 9.9 32
RYAN Adrian#746Adult Male0:32:23 9.7 43
THYNNE Chris#735Adult Male0:33:59 9.3 54
HUNT Cathy#743Open Team0:34:38 9.1 61
UZUNGIL Volkan#701Junior Male0:34:45 9.1 71
COCHRANE David#749Adult Male0:36:05 8.7 85
TESORIERO Craig#748Adult Male0:36:14 8.7 96
WILLIAMS Cassandra#755Adult Female0:36:52 8.5 101
LUND Sarah#741Junior Team0:36:53 8.5 112
COLLINS Steven#736Adult Male0:37:57 8.3 127
LESTER Sarah#738Adult Female0:37:57 8.3 132
FAVALORO Anthony#754Adult Male0:38:18 8.2 148
SMITH Michael#756Adult Male0:38:59 8.1 159
VARNEY John#733Adult Male0:39:12 8 1610
ISRAEL Ben#753Adult Male0:39:22 8 1711
LEWIS Graham#737Adult Male0:39:32 8 1812
ALLEN Bruce#747Adult Male0:39:57 7.9 1913
MORRIS Clare#742Open Team0:41:43 7.6 202
CATTO-SMITH Hannah#751Open Team0:41:47 7.5 213
CATTO-SMITH Tony#752Open Team0:42:30 7.4 224
FRANCIS Gen#744Adult Male0:44:11 7.1 2314
SEACH Angela#745Adult Female0:46:04 6.8 243